[[{"header":{"parameterUnit":"m.s-1","parameterCategory":1,"la1":30.2991,"la2":30.254,"lo1":-89.0895,"lo2":-89.0444,"dy":0.0017,"dx":0.0017,"nx":28,"ny":28,"refTime":"2025-07-20T09:00:00:Z","depth":0,"parameterNumber":2,"parameterNumberName":"U-component_of_WINDS"},"data":[0,0,0,0,0,0,0,0,0,0,0,0,0,0,0,0,0,0,0,0,0,0,0,0,0,0,0,0,0,0,0,0,0,0,0,0,0,0,0,0,0,0,0,0,0,0,0,0,0,0,0,0,0,0,0,0,0,0,1.1325,1.1326,0,1.1421,1.1422,1.1423,1.1472,1.1472,1.1472,1.1472,1.1574,1.1577,1.1579,0,0,0,0,0,0,0,0,0,0,0,0,0,1.1188,1.119,1.1325,1.1326,1.1327,1.1421,1.1422,1.1423,1.1472,1.1472,1.1472,1.1472,1.1573,1.1576,1.158,0,0,0,0,0,0,0,0,0,0,0,0,0,1.1262,1.1191,1.1325,1.1363,1.1367,1.142,1.1422,1.1424,1.1472,1.1472,1.1472,1.1472,1.1572,1.1576,1.158,1.1604,0,0,1.1592,1.1594,0,0,0,0,0,0,0,0,1.1258,1.1267,1.1356,1.136,1.1365,1.1434,1.1411,1.1484,1.1472,1.1432,1.1472,1.1472,1.1528,1.1535,1.1553,1.1609,1.1613,1.1593,1.1595,1.1597,1.1598,0,0,0,0,0,0,0,1.1253,1.1263,1.1363,1.1357,1.1363,1.1376,1.1387,1.1425,1.1479,1.1436,1.1439,1.145,1.153,1.1549,1.1556,1.1615,1.1593,1.1596,1.1599,1.16,1.1695,1.1695,0,0,0,0,0,0,1.1241,1.1259,1.136,1.1366,1.131,1.1379,1.139,1.1412,1.1478,1.1488,1.145,1.1452,1.1542,1.1551,1.156,1.1592,1.1597,1.1601,1.1603,1.1694,1.1695,1.1695,0,0,0,0,0,0,1.1238,1.1249,1.1356,1.1313,1.1328,1.1381,1.1405,1.1414,1.1433,1.1489,1.1499,1.1459,1.1543,1.1554,1.1592,1.1596,1.1602,1.1606,1.1694,1.1694,1.1695,1.1657,0,0,0,0,0,0,1.1233,1.1248,1.1257,1.1313,1.133,1.1386,1.1405,1.1416,1.1439,1.1443,1.15,1.151,1.1544,1.1586,1.1596,1.1602,1.1609,1.1694,1.1694,1.1695,1.1658,1.1656,1.1654,0,0,0,0,0,1.1228,1.1243,1.1257,1.1269,1.1342,1.1386,1.1396,1.1433,1.144,1.1449,1.1485,1.1508,1.1594,1.1589,1.1602,1.1609,1.1694,1.1694,1.1695,1.1659,1.1656,1.1654,0,0,0,0,0,0,1.1188,1.1251,1.1267,1.13,1.1337,1.1394,1.1407,1.1429,1.1465,1.1467,1.1514,1.1526,1.156,1.1588,1.1582,1.1635,1.1647,1.1649,1.1615,1.1613,1.1611,1.1604,1.1613,0,0,0,0,0,1.1182,1.1211,1.1266,1.129,1.1308,1.1354,1.1375,1.14,1.1441,1.1457,1.1495,1.1535,1.1571,1.1594,1.163,1.1662,1.1676,1.1673,1.1671,1.1669,1.1671,1.169,1.1689,1.1695,1.1695,1.1695,0,0,1.1172,1.121,1.1226,1.1283,1.1314,1.1344,1.1367,1.1398,1.1421,1.1462,1.15,1.1529,1.1577,1.1612,1.1629,1.1636,1.1672,1.1669,1.1667,1.167,1.169,1.1689,1.1689,1.1695,1.1695,1.1695,0,0,1.1168,1.12,1.1223,1.1254,1.1301,1.1332,1.1337,1.1391,1.1411,1.145,1.1481,1.151,1.1571,1.1603,1.1627,1.1635,1.1658,1.1646,1.1635,1.1653,1.1652,1.1652,1.1655,1.1655,1.1647,1.1647,1.1647,0,1.115,1.1195,1.1233,1.1262,1.1286,1.1323,1.1348,1.1376,1.1433,1.1449,1.1456,1.1533,1.1567,1.161,1.1612,1.163,1.1639,1.1639,1.1649,1.1649,1.165,1.1653,1.1654,1.1645,1.1646,1.1646,1.1646,0,1.117,1.1201,1.1215,1.1267,1.1293,1.1319,1.1362,1.1384,1.1407,1.1437,1.1476,1.1518,1.1564,1.1576,1.1599,1.1622,1.1625,1.164,1.1652,1.1646,1.165,1.1652,1.1643,1.1643,1.1644,1.1644,0,0,1.1144,1.1216,1.122,1.1244,1.1298,1.1323,1.1352,1.1395,1.1412,1.145,1.1476,1.1526,1.154,1.1567,1.1595,1.1611,1.1614,1.1624,1.1626,1.162,1.1642,1.163,1.1631,1.1629,1.1629,1.163,1.1638,0,1.1148,1.1199,1.1234,1.1272,1.1301,1.1337,1.1362,1.1398,1.1427,1.1457,1.149,1.1524,1.154,1.1557,1.1574,1.161,1.1619,1.161,1.1654,1.1655,1.1641,1.1633,1.1621,1.1626,1.1639,1.164,1.164,0,1.1159,1.1194,1.1235,1.1285,1.1299,1.132,1.1362,1.139,1.1432,1.1453,1.1482,1.151,1.1543,1.1552,1.1598,1.1591,1.1611,1.1631,1.1632,1.1638,1.1647,1.1638,1.1629,1.1629,1.1643,1.1642,1.1642,0,1.1136,1.1193,1.1225,1.1244,1.1304,1.1318,1.1344,1.1386,1.1409,1.1446,1.1462,1.1503,1.1525,1.1557,1.1595,1.1598,1.1637,1.1649,1.1655,1.1654,1.1662,1.1661,1.1655,1.1675,1.1675,1.1675,1.1675,0,1.1136,1.116,1.1215,1.1234,1.1262,1.1302,1.1329,1.1357,1.1394,1.1421,1.1454,1.1479,1.1528,1.1558,1.1589,1.1622,1.1632,1.165,1.1657,1.1646,1.1644,1.166,1.1661,1.1675,1.1675,1.1675,1.1675,0,1.1115,1.1153,1.1189,1.1242,1.1256,1.1274,1.132,1.134,1.1371,1.1404,1.1414,1.1462,1.15,1.1541,1.1593,1.1613,1.1645,1.1656,1.163,1.1634,1.1638,1.1637,1.1643,1.1645,1.1663,1.1662,1.1662,0,1.1113,1.1131,1.1186,1.1205,1.1229,1.126,1.1284,1.1324,1.1348,1.1397,1.1411,1.1451,1.1485,1.1544,1.1584,1.1624,1.1637,1.1636,1.1643,1.1631,1.1636,1.1635,1.1637,1.1634,1.1633,1.1633,1.1633,0,1.1105,1.1122,1.1154,1.1192,1.1219,1.1252,1.1286,1.13,1.1348,1.1372,1.141,1.1436,1.1488,1.1528,1.1572,1.16,1.1624,1.163,1.1633,1.1622,1.1606,1.1615,1.1624,1.163,1.163,1.163,1.163,1.1631,1.1093,1.1111,1.1151,1.1186,1.1215,1.1246,1.1268,1.13,1.1332,1.1377,1.1399,1.1437,1.1479,1.1541,1.1568,1.1599,1.1607,1.1612,1.1613,1.1614,1.161,1.1601,1.1608,1.1608,1.1608,1.1608,1.1608,0,1.1086,1.1114,1.1145,1.1191,1.1218,1.1237,1.1276,1.1297,1.133,1.1366,1.1398,1.1442,1.148,1.1523,1.1564,1.158,1.1592,1.159,1.1589,1.1595,1.1602,1.1594,1.1579,1.1579,1.1579,1.1579,1.1579,1.1579,1.1086,1.1117,1.114,1.1186,1.1214,1.125,1.1271,1.1299,1.1328,1.1375,1.1406,1.1433,1.1473,1.1517,1.1553,1.1564,1.1578,1.1572,1.1587,1.1592,1.1595,1.1597,1.159,1.1574,1.1574,1.1578,1.1578,1.1578]},{"header":{"parameterUnit":"m.s-1","parameterCategory":1,"la1":30.2991,"la2":30.254,"lo1":-89.0895,"lo2":-89.0444,"dy":0.0017,"dx":0.0017,"nx":28,"ny":28,"refTime":"2025-07-20T09:00:00:Z","depth":0,"parameterNumber":3,"parameterNumberName":"V-component_of_WINDS"},"data":[0,0,0,0,0,0,0,0,0,0,0,0,0,0,0,0,0,0,0,0,0,0,0,0,0,0,0,0,0,0,0,0,0,0,0,0,0,0,0,0,0,0,0,0,0,0,0,0,0,0,0,0,0,0,0,0,0,0,2.6398,2.6397,0,2.6353,2.6352,2.6352,2.6344,2.6345,2.6345,2.6345,2.6295,2.6293,2.6292,0,0,0,0,0,0,0,0,0,0,0,0,0,2.6473,2.6472,2.6398,2.6397,2.6397,2.6353,2.6352,2.6351,2.6344,2.6345,2.6345,2.6345,2.6295,2.6293,2.6291,0,0,0,0,0,0,0,0,0,0,0,0,0,2.6435,2.6471,2.6398,2.6388,2.6386,2.6353,2.6352,2.6351,2.6344,2.6345,2.6345,2.6346,2.6296,2.6294,2.6291,2.6263,0,0,2.6283,2.6282,0,0,0,0,0,0,0,0,2.6437,2.6433,2.639,2.6388,2.6387,2.6355,2.636,2.6322,2.6344,2.636,2.6345,2.6346,2.6314,2.631,2.63,2.6261,2.6259,2.6283,2.6281,2.628,2.628,0,0,0,0,0,0,0,2.644,2.6434,2.638,2.6389,2.6387,2.6384,2.6379,2.6353,2.6334,2.6359,2.6358,2.6353,2.6313,2.6303,2.6299,2.6258,2.6283,2.6281,2.6279,2.6278,2.6191,2.619,0,0,0,0,0,0,2.6445,2.6437,2.6381,2.6378,2.6414,2.6382,2.6377,2.6364,2.6334,2.633,2.6352,2.6353,2.6307,2.6302,2.6297,2.6261,2.628,2.6278,2.6276,2.6192,2.6191,2.619,0,0,0,0,0,0,2.6447,2.644,2.6383,2.6407,2.64,2.638,2.6366,2.6363,2.6352,2.633,2.6326,2.6345,2.6307,2.6301,2.6271,2.6259,2.6277,2.6274,2.6193,2.6191,2.619,2.6189,0,0,0,0,0,0,2.6449,2.6441,2.6431,2.6407,2.6399,2.636,2.6365,2.6362,2.6349,2.6348,2.6322,2.6318,2.6307,2.6275,2.6269,2.6256,2.6272,2.6194,2.6192,2.6191,2.619,2.6188,2.6186,0,0,0,0,0,2.6452,2.6432,2.6431,2.6424,2.6386,2.6359,2.6354,2.6343,2.6348,2.6337,2.6322,2.6319,2.6262,2.6272,2.6265,2.6251,2.6194,2.6192,2.6191,2.6191,2.6188,2.6186,0,0,0,0,0,0,2.6454,2.6429,2.6427,2.64,2.6382,2.6358,2.6344,2.6341,2.632,2.632,2.6306,2.63,2.6271,2.6258,2.6271,2.6221,2.6228,2.6225,2.6231,2.6228,2.6226,2.6229,2.627,0,0,0,0,0,2.6452,2.6433,2.6412,2.6389,2.638,2.6364,2.6351,2.6344,2.6325,2.6317,2.63,2.6279,2.6256,2.6242,2.622,2.6188,2.6181,2.6175,2.6173,2.6172,2.6168,2.6149,2.6145,2.6184,2.6184,2.6184,0,0,2.6446,2.643,2.6419,2.6389,2.6375,2.6354,2.6357,2.6336,2.6319,2.6313,2.6284,2.6271,2.6247,2.6216,2.6202,2.6204,2.6156,2.6169,2.6168,2.6166,2.6147,2.6143,2.614,2.6183,2.6183,2.6183,0,0,2.6425,2.6412,2.6391,2.6376,2.6354,2.6343,2.6338,2.6315,2.6306,2.6277,2.6271,2.6251,2.6213,2.6195,2.6182,2.6153,2.6148,2.6146,2.6135,2.6116,2.6113,2.611,2.6098,2.6094,2.6143,2.6143,2.6143,0,2.642,2.639,2.638,2.6359,2.6345,2.6339,2.6317,2.6302,2.6274,2.6263,2.6267,2.6218,2.6202,2.6166,2.6159,2.6149,2.6141,2.6148,2.6115,2.6112,2.6109,2.6097,2.6093,2.6143,2.6143,2.6143,2.6143,0,2.6385,2.6364,2.6349,2.6323,2.6307,2.6286,2.6271,2.6256,2.625,2.6238,2.6207,2.6188,2.6161,2.6152,2.6146,2.6115,2.6117,2.6118,2.6124,2.6105,2.6094,2.6089,2.6142,2.6143,2.6143,2.6143,0,0,2.6364,2.6332,2.6326,2.6313,2.6288,2.6271,2.6248,2.6223,2.6209,2.619,2.6168,2.6136,2.6136,2.6121,2.6112,2.6096,2.6072,2.6099,2.6098,2.6093,2.6034,2.6032,2.6027,2.6069,2.6069,2.6068,2.6035,0,2.6338,2.6298,2.6288,2.6254,2.6233,2.6227,2.6206,2.6187,2.6175,2.6155,2.6141,2.6117,2.6121,2.6111,2.6095,2.6078,2.606,2.6081,2.6047,2.6046,2.6052,2.6022,2.602,2.599,2.6031,2.603,2.603,0,2.6303,2.6284,2.6247,2.6223,2.6214,2.6196,2.6171,2.6152,2.613,2.6122,2.6105,2.6098,2.6071,2.608,2.6042,2.6057,2.6042,2.6032,2.6031,2.6026,2.6036,2.6014,2.5981,2.5976,2.6023,2.6024,2.6024,0,2.6289,2.6254,2.6227,2.6216,2.6188,2.6175,2.6163,2.6141,2.6126,2.6104,2.6094,2.6069,2.6054,2.6034,2.6019,2.6027,2.5982,2.599,2.5973,2.5973,2.5962,2.5963,2.5924,2.5956,2.5956,2.5956,2.5956,0,2.6261,2.6239,2.622,2.6203,2.6177,2.6165,2.6139,2.6126,2.6107,2.6086,2.6079,2.6059,2.6042,2.6019,2.6008,2.5977,2.5971,2.5962,2.5959,2.5962,2.5963,2.5951,2.5952,2.5955,2.5955,2.5955,2.5956,0,2.6241,2.6228,2.6198,2.6174,2.6167,2.6149,2.6127,2.611,2.6097,2.6071,2.6064,2.6044,2.6017,2.6001,2.5966,2.5958,2.5923,2.5922,2.5931,2.593,2.5913,2.5914,2.5864,2.5856,2.5895,2.5894,2.5894,0,2.6223,2.6206,2.618,2.6166,2.6154,2.6132,2.6116,2.6103,2.6087,2.606,2.6045,2.6018,2.5995,2.5952,2.5933,2.5906,2.5902,2.5887,2.5898,2.5901,2.59,2.59,2.5898,2.5884,2.5884,2.5884,2.5884,0,2.6192,2.6187,2.6166,2.6142,2.6124,2.6104,2.6085,2.6073,2.6056,2.6038,2.6011,2.5994,2.5959,2.5931,2.5902,2.5887,2.5881,2.588,2.5875,2.5876,2.5882,2.5877,2.5924,2.5881,2.5881,2.5882,2.5882,2.5882,2.6172,2.6155,2.6134,2.611,2.6094,2.6076,2.6058,2.6043,2.6021,2.5992,2.5985,2.5956,2.5932,2.5893,2.5878,2.5853,2.5856,2.5848,2.5845,2.5843,2.5842,2.5887,2.5848,2.5848,2.5848,2.5848,2.5848,0,2.6139,2.6125,2.6104,2.6076,2.6057,2.6056,2.6033,2.6017,2.5992,2.5971,2.5949,2.5916,2.5889,2.5868,2.5839,2.5824,2.582,2.5816,2.5816,2.5813,2.5842,2.5849,2.5819,2.5819,2.5819,2.5819,2.5819,2.5819,2.612,2.6091,2.6082,2.6045,2.6031,2.6003,2.599,2.5972,2.5956,2.592,2.5898,2.5885,2.5863,2.5833,2.5807,2.5801,2.579,2.5786,2.578,2.5808,2.5811,2.5814,2.582,2.5784,2.5784,2.5752,2.5752,2.5751]}]]